Regional Weather Roundup
Issued by NWS

Home | Current Version | Previous Version | Graphics & Text | Print | Product List | Glossary On
Versions: 1 2 3 4 5 6 7 8 9 10 11 12 13 14 15 16 17 18 19 20 21 22 23 24 25 26 27 28 29 30 31 32 33 34 35 36 37 38 39 40 41 42 43 44 45 46 47 48 49 50
000
ASUS43 KDTX 281410
RWRMI
MICHIGAN HOURLY REGIONAL WEATHER ROUNDUP
NATIONAL WEATHER SERVICE DETROIT/PONTIAC MI
ISSUED BY NATIONAL WEATHER SERVICE GRAND RAPIDS MI
900 AM EST TUE FEB 28 2017

NOTE: "FAIR" INDICATES FEW OR NO CLOUDS BELOW 12,000 FEET WITH NO
SIGNIFICANT WEATHER AND/OR OBSTRUCTION TO VISIBILITY.

MIZ047>049-052>055-059>063-066>070-074>076-081>083-281500-
SOUTHEAST LOWER MICHIGAN

CITY           SKY/WX    TMP DP  RH WIND       PRES   REMARKS
ADRIAN         LGT RAIN  41  41 100 S10       30.02F FOG
ALMA           LGT RAIN  40  40  97 E10       29.93F WCI  34
ANN ARBOR      CLOUDY    41  41 100 SE12      30.01F FOG
BAD AXE        LGT RAIN  37  37  99 SE7       30.04F WCI  31
DETROIT CITY   CLOUDY    41  40  96 SE10      30.07F FOG
DETROIT        LGT RAIN  42  39  89 SE10      30.06F FOG
FLINT          CLOUDY    42  40  92 SE13      29.97F FOG
GROSSE ILE     LGT RAIN  41  38  91 SE7       30.05F
HILLSDALE      CLOUDY    41  39  93 SE10      29.96F FOG
HOWELL         CLOUDY    42  40  93 SE18      29.98F FOG

CITY           SKY/WX    TMP DP  RH WIND       PRES   REMARKS
JACKSON        CLOUDY    44  41  89 S16G24    29.96F
LANSING        CLOUDY    44  40  85 S15       29.93F FOG
MASON          CLOUDY    43  42  96 S16G24    29.94F FOG
MONROE         LGT RAIN  41  40  97 SE8       30.04F
MT. CLEMENS    LGT RAIN  39  39 100 SE14      30.05F FOG     WCI  31
PONTIAC        LGT RAIN  40  38  93 SE12G22   30.00F FOG     WCI  33
PORT HOPE        N/A     37  35  92 SE14      30.02F WCI  28
PORT HURON     DRIZZLE   39  37  93 SE8       30.08F WCI  34
TRI CITIES     LGT RAIN  41  40  96 SE9       29.98F FOG
YPSILANTI      LGT RAIN  43  41  93 SE14      30.04F FOG
$$
MIZ043>046-050>051-056>058-064>065-071>073-077>080-281500-
SOUTHWEST LOWER MICHIGAN

CITY           SKY/WX    TMP DP  RH WIND       PRES   REMARKS
BATTLE CREEK   CLOUDY    45  43  93 S17       29.92F
BENTON HARBOR  CLOUDY    49  44  83 S14G21    29.87F
BIG RAPIDS     MIX PCPN  38  37  94 SE8       29.89F WCI  32
COLDWATER      CLOUDY    44  44  99 SE12      29.95F FOG
HOLLAND        CLOUDY    47  43  86 S16       29.87F
GRAND RAPIDS   LGT RAIN  44  41  89 SE8       29.89F FOG
KALAMAZOO      CLOUDY    46  42  86 S10G18    29.91F FOG
MARSHALL       CLOUDY    45  44  96 S12G17    29.93F
MOUNT PLEASANT LGT RAIN  38  38  98 E7        29.95F WCI  33
MUSKEGON       CLOUDY    44  42  93 SE10      29.87F FOG
STURGIS        CLOUDY    45  44  95 S13G18    29.94F
$$
MIZ016>042-281500-
NORTHERN LOWER MICHIGAN

CITY           SKY/WX    TMP DP  RH WIND       PRES   REMARKS
ALPENA         CLOUDY    37  35  92 SE6       30.02S WCI  32
BEAVER ISLAND  DRIZZLE   38  34  85 SE9       29.91F WCI  31
BELLAIRE       MIX PCPN  38  36  93 CALM      29.92F
CADILLAC       DRIZZLE   38  36  92 SE13      29.86F WCI  30
CHARLEVOIX     LGT RAIN  39  36  87 SE7       29.95F WCI  34
GAYLORD        LGT RAIN  37  32  82 SE8       29.94F WCI  31
HOUGHTON LAKE  LGT RAIN  36  35  96 SE14      29.93F FOG     WCI  27
MANISTEE       LGT RAIN  40  38  93 SE9       29.84F FOG     WCI  34
OSCODA         CLOUDY    37  36  93 S10       30.02F FOG     WCI  30
PELLSTON       CLOUDY    34  29  82 S5        29.95F WCI  30
TRAVERSE CITY  LGT RAIN  40  36  86 SE6       29.90F FOG
LUDINGTON      CLOUDY    42  41  97 SE13      29.84F FOG
$$
MIZ007>008-015-281500-
EASTERN UPPER MICHIGAN

CITY           SKY/WX    TMP DP  RH WIND       PRES   REMARKS
KINROSS        FLURRIES  30  28  92 SE9       29.95F WCI  22
MACKINAC ISLAN CLOUDY    36  31  84 SE12G18   29.94F WCI  27
NEWBERRY       LGT RAIN  34  33  95 S8        29.90F WCI  28
S. S. MARIE    CLOUDY    30  27  88 E7        29.95F WCI  23
$$
MIZ004>006-011>014-085-281500-
CENTRAL UPPER MICHIGAN

CITY           SKY/WX    TMP DP  RH WIND       PRES   REMARKS
MANISTIQUE     DRIZZLE   36  35  96 CALM      29.89S
ESCANABA       LGT RAIN  36  34  93 CALM      29.87S VSB 1
MENOMINEE      LGT RAIN  37  36  93 E3        29.85S VSB 1/2
SAWYER-GWINN   CLOUDY    32  32 100 S9        29.84F FOG     WCI  24
$$
MIZ001>003-009>011-084-281500-
WESTERN UPPER MICHIGAN

CITY           SKY/WX    TMP DP  RH WIND       PRES   REMARKS
IRON MOUNTAIN  MIX PCPN  32  29  88 CALM      29.81F FOG
HOUGHTON       LGT SNOW  33  30  88 N5        29.81S FOG     WCI  29
COPPER HARBOR    N/A     33  32  96 CALM      29.84F
IRONWOOD       MIX PCPN  33  31  92 CALM      29.80F FOG
$$

ABBREVIATIONS USED IN REMARKS
   TC - TEMPERATURE IN CELSIUS
  WCI - WIND CHILL INDEX
   HX - HEAT INDEX
  VSB - VISIBILITY





USA.gov is the U.S. government's official web portal to all federal, state and local government web resources and services.